Content
SEND FEEDBACK

Daily
Averages
Monthly
Summary
United States of America

ST. LOUIS, MISSOURI


Home > North America > United States > Missouri
Elevation: 163 meters     Latitude: 38 45N     Longitude: 090 22W

WEATHER
 
SELECT A DAY
Number of Records: 200,489;   Date Range: 1/1/95 - 11/22/14
 
SHARE

PRINT THIS DATA

[ ← Previous Day ]
WEATHER ALMANAC - 21 NOVEMBER, 2013
[ Next Day → ]
[ °F ]   °C
Weather ElementAverageHighLow
Temperature10.1 °C11 °C (4:01 pm)8.9 °C (2:54 am)
Dewpoint8.5 °C9.4 °C (2:54 pm)5 °C (1:54 am)
Humidity90.7 %96 % (2:54 pm)71 % (5:54 am)
Barometer1021 hPa1023 hPa (11:54 pm)1019 hPa (2:54 am)
Wind Speed1.3 km/h9.3 km/h (8:54 am)
Weather ElementAverage
Visibility6 km
Wind DirectionNNE (27.8 °)

Weather ElementTotal
Precipitation12.19 mm
Heating Degree Days8.4 (Base 18.3)
Averaged from 46 records on 21 November, 2013
WEATHER CONDITIONS BREAKOUT
WIND DIRECTION BREAKOUT
WEATHER BY HOUR - 21 NOVEMBER, 2013
[ °F ]   °C
Local TimeTemperatureDewpointHumidityBarometerVisibilityWind DirectionWind SpeedGust SpeedPrecipitationEventsConditions
1:54 AM9.4 °C5 °C74 %1019.3 hPa16.1 kmSE (130°)5.6 km/hOvercast
2:54 AM8.9 °C5.6 °C80 %1019 hPa16.1 kmEast (90°)7.4 km/hOvercast
3:54 AM9.4 °C5 °C74 %1019 hPa16.1 kmCalmOvercast
4:54 AM9.4 °C5 °C74 %1019 hPa16.1 kmCalmOvercast
5:54 AM10 °C5 °C71 %1019.6 hPa16.1 kmCalmOvercast
6:54 AM10 °C5.6 °C74 %1020 hPa16.1 kmSouth (170°)5.6 km/h0 mmRainLight Rain
7:54 AM10 °C6.7 °C80 %1020.3 hPa16.1 kmVariable7.4 km/h0.25 mmRainLight Rain
8:54 AM10 °C7.8 °C86 %1020.3 hPa16.1 kmSouth (180°)9.3 km/h0 mmRainLight Rain
9:54 AM10 °C8.3 °C89 %1020.7 hPa9.7 kmSouth (170°)7.4 km/h0.76 mmRainLight Rain
10:30 AM10 °C9 °C94 %1021 hPa8 kmCalm1.02 mmRainLight Rain
10:54 AM10 °C8.9 °C93 %1021 hPa4.8 kmSouth (190°)5.6 km/h2.03 mmRainRain
11:54 AM10 °C8.9 °C93 %1020.3 hPa4.8 kmSSW (200°)7.4 km/h2.03 mmRainLight Rain
12:05 PM10 °C9 °C94 %1020.3 hPa9.7 kmCalm0.25 mmRainLight Rain
12:26 PM10 °C9 °C94 %1020 hPa4 kmCalm0.76 mmRainRain
12:43 PM10 °C9 °C94 %1019.6 hPa4.8 kmCalm1.78 mmRainLight Rain
12:54 PM10 °C8.9 °C93 %1019.6 hPa8 kmCalm2.03 mmRainLight Rain
1:54 PM10 °C8.9 °C93 %1019.6 hPa16.1 kmCalm0.25 mmOvercast
2:21 PM10 °C9 °C94 %1019.6 hPa2.9 kmCalm0 mmOvercast
2:50 PM10 °C9 °C94 %1019.6 hPa1.6 kmCalm0.25 mmOvercast
2:54 PM10 °C9.4 °C96 %1019.6 hPa1.6 kmCalm0.25 mmOvercast
3:54 PM10.6 °C9.4 °C92 %1020 hPa1.6 kmSSE (150°)5.6 km/hOvercast
4:01 PM11 °C9 °C88 %1019.6 hPa3.2 kmCalmOvercast
4:54 PM10.6 °C9.4 °C92 %1020.3 hPa3.2 kmCalmOvercast
5:07 PM11 °C9 °C88 %1020.3 hPa3.2 kmCalmOvercast
5:16 PM11 °C9 °C88 %1020.7 hPa3.2 kmCalmOvercast
5:54 PM10 °C9.4 °C96 %1021 hPa3.2 kmCalmOvercast
6:03 PM10 °C9 °C94 %1021 hPa4.8 kmCalmOvercast
6:13 PM10 °C9 °C94 %1021.3 hPa4 kmCalmOvercast
6:24 PM10 °C9 °C94 %1021 hPa4 kmCalmOvercast
6:54 PM10 °C9.4 °C96 %1021.7 hPa4 kmCalmOvercast
7:03 PM10 °C9 °C94 %1021.3 hPa4.8 kmCalmOvercast
7:16 PM10 °C9 °C94 %1021.3 hPa3.2 kmCalmOvercast
7:20 PM10 °C9 °C94 %1021.3 hPa2.9 kmCalmOvercast
7:29 PM10 °C9 °C94 %1021.7 hPa1.9 kmCalmOvercast
7:54 PM10 °C9.4 °C96 %1022 hPa2.9 kmCalmOvercast
8:03 PM10 °C9 °C94 %1021.7 hPa3.2 kmCalmOvercast
8:10 PM10 °C9 °C94 %1022 hPa2.9 kmCalmOvercast
8:54 PM10 °C9.4 °C96 %1022 hPa1.6 kmCalmOvercast
9:26 PM10 °C9 °C94 %1022.4 hPa1.6 kmCalm0.25 mmOvercast
9:54 PM10 °C9.4 °C96 %1022.7 hPa1.6 kmCalm0.25 mmMist
10:01 PM10 °C9 °C94 %1022.4 hPa0.8 kmCalmFogFog
10:10 PM10 °C9 °C94 %1022.7 hPa0.8 kmCalmFogFog
10:40 PM10 °C9 °C94 %1022.7 hPa0.3 kmCalmFogFog
10:47 PM10 °C9 °C94 %1022.4 hPa0.8 kmCalmFogFog
10:54 PM10 °C9.4 °C96 %1022.7 hPa0.8 kmCalmFogFog
11:54 PM10 °C9.4 °C96 %1023 hPa1.6 kmCalmOvercast
Hourly data recorded from KSUS, located 0 kilometers away from St. Louis, Missouri







STORIES FROM OUR PARTNERS